Location: ??
(35.4032°N, 139.3073°E)
Time: 02:43:20
(UTC+00:00)

Intercosmos 25 Rocket - Pass Details

Date: 13 April 2024
Orbit: 434 x 2971 km, 82.6° (Epoch: 25 May)

Event Time Altitude Azimuth Distance (km) Brightness Sun altitude
Rises 19:16:19 0° 338° (NNW) 2,571 6.7 -11.7°
Reaches altitude 10° 19:18:17 10° 326° (NW) 1,813 5.8 -11.3°
Maximum altitude 19:21:41 30° 263° (W) 1,190 4.5 -10.6°
Drops below altitude 10° 19:26:27 10° 204° (SSW) 2,599 6.3 -9.7°
Sets 19:29:49 0° 195° (SSW) 3,940 7.3 -9.1°
